Radiation Dose measured at exhaust stack monitor of Fukushima Daiichi Nuclear Power Station
Date,Time,Unit 5 6 shared exhaust cylinders,Wind Direction,Wind Velocity(m/s)
2021/12/14,00:00,3.9,west-southwest,3.5
2021/12/14,00:10,4.1,west-southwest,4.1
2021/12/14,00:20,3.9,west-southwest,6.1
2021/12/14,00:30,4.0,west-southwest,5.4
2021/12/14,00:40,4.1,west-southwest,4.8
2021/12/14,00:50,4.1,west-southwest,4.9
2021/12/14,01:00,3.9,west-southwest,5.5
2021/12/14,01:10,4.0,west-southwest,6.0
2021/12/14,01:20,3.9,west,6.6
2021/12/14,01:30,3.9,west,6.8
2021/12/14,01:40,4.0,west,7.2
2021/12/14,01:50,3.9,west,7.5
2021/12/14,02:00,3.9,west,7.6
2021/12/14,02:10,3.9,west,6.5
2021/12/14,02:20,3.7,west,7.4
2021/12/14,02:30,3.9,west,7.6
2021/12/14,02:40,3.8,west,6.8
2021/12/14,02:50,4.0,west,6.1
2021/12/14,03:00,4.1,west,4.9
2021/12/14,03:10,3.9,west,4.9
2021/12/14,03:20,4.0,west,5.7
2021/12/14,03:30,3.9,west,4.6
2021/12/14,03:40,3.9,west,4.3
2021/12/14,03:50,3.9,west,3.6
2021/12/14,04:00,3.9,west,1.9
2021/12/14,04:10,4.0,west,1.7
2021/12/14,04:20,3.9,west,3.2
2021/12/14,04:30,3.9,west,4.7
2021/12/14,04:40,3.9,west,4.4
2021/12/14,04:50,4.1,west,4.5
2021/12/14,05:00,3.8,west,5.5
2021/12/14,05:10,3.9,west,4.8
2021/12/14,05:20,3.9,west,5.1
2021/12/14,05:30,4.0,west,6.1
2021/12/14,05:40,3.9,west-northwest,5.9
2021/12/14,05:50,4.0,west-northwest,6.1
2021/12/14,06:00,3.9,west-northwest,6.1
2021/12/14,06:10,4.0,northwest,6.7
2021/12/14,06:20,4.1,northwest,7.8
2021/12/14,06:30,3.9,northwest,8.1
2021/12/14,06:40,3.9,west-northwest,6.0
2021/12/14,06:50,3.9,west-northwest,7.5
2021/12/14,07:00,4.1,west-northwest,8.5
2021/12/14,07:10,3.9,west-northwest,8.2
2021/12/14,07:20,3.9,west-northwest,6.6
2021/12/14,07:30,3.9,northwest,7.4
2021/12/14,07:40,4.0,northwest,5.5
2021/12/14,07:50,4.0,northwest,2.0
2021/12/14,08:00,4.2,northwest,2.6
2021/12/14,08:10,3.9,north-northwest,2.6
2021/12/14,08:20,4.0,north-northwest,1.7
2021/12/14,08:30,3.9,west-northwest,1.5
2021/12/14,08:40,3.8,northwest,2.8
2021/12/14,08:50,4.0,west-northwest,3.1
2021/12/14,09:00,3.8,northwest,0.6
2021/12/14,09:10,3.9,-,CALM
2021/12/14,09:20,3.9,west-northwest,0.9
2021/12/14,09:30,4.0,north-northeast,0.6
2021/12/14,09:40,4.0,-,CALM
2021/12/14,09:50,3.9,-,CALM
2021/12/14,10:00,4.0,southeast,0.6
2021/12/14,10:10,4.1,east-northeast,1.9
2021/12/14,10:20,4.0,north-northeast,1.9
2021/12/14,10:30,4.0,east-northeast,1.5
2021/12/14,10:40,4.0,northeast,1.5
2021/12/14,10:50,3.8,southeast,1.9
2021/12/14,11:00,4.0,east,0.9
2021/12/14,11:10,3.9,east-southeast,1.2
2021/12/14,11:20,3.9,east-southeast,1.5
2021/12/14,11:30,3.9,east-southeast,2.2
2021/12/14,11:40,4.0,southeast,3.6
2021/12/14,11:50,3.9,southeast,3.1
2021/12/14,12:00,3.9,south-southeast,4.0
2021/12/14,12:10,3.9,south-southeast,4.5
2021/12/14,12:20,3.9,south-southeast,5.1
2021/12/14,12:30,4.1,south-southeast,6.1
2021/12/14,12:40,3.9,south-southeast,6.7
2021/12/14,12:50,4.0,south-southeast,7.5
2021/12/14,13:00,4.0,south-southeast,7.4
2021/12/14,13:10,3.8,south-southeast,8.1
2021/12/14,13:20,3.9,south-southeast,8.9
2021/12/14,13:30,4.1,south-southeast,8.1
2021/12/14,13:40,4.1,south-southeast,8.0
2021/12/14,13:50,3.9,south-southeast,8.5
2021/12/14,14:00,4.2,south-southeast,9.1
2021/12/14,14:10,4.1,south-southeast,9.4
2021/12/14,14:20,3.9,south,9.0
2021/12/14,14:30,4.0,south,7.1
2021/12/14,14:40,4.1,south,8.5
2021/12/14,14:50,4.0,south,7.8
2021/12/14,15:00,3.9,south,9.1
2021/12/14,15:10,4.0,south,8.0
2021/12/14,15:20,4.0,south,8.2
2021/12/14,15:30,4.2,south,7.6
2021/12/14,15:40,3.9,south,6.8
2021/12/14,15:50,3.9,south,6.5
2021/12/14,16:00,3.8,south,7.1
2021/12/14,16:10,4.0,south,6.9
2021/12/14,16:20,3.9,south,5.9
2021/12/14,16:30,3.9,south,6.0
2021/12/14,16:40,4.0,south,6.1
2021/12/14,16:50,3.9,south,6.3
2021/12/14,17:00,4.0,south,5.8
2021/12/14,17:10,4.1,south,6.1
2021/12/14,17:20,4.0,south,7.0
2021/12/14,17:30,4.1,south,6.5
2021/12/14,17:40,3.9,south,6.6
2021/12/14,17:50,3.7,south,7.1
2021/12/14,18:00,3.9,south,7.3
2021/12/14,18:10,3.8,south,6.2
2021/12/14,18:20,4.1,south,6.0
2021/12/14,18:30,3.9,south,5.9
2021/12/14,18:40,3.9,south,5.8
2021/12/14,18:50,4.0,south,4.9
2021/12/14,19:00,4.0,south,4.9
2021/12/14,19:10,3.9,south,5.3
2021/12/14,19:20,4.0,south,5.9
2021/12/14,19:30,4.0,south,5.9
2021/12/14,19:40,4.0,south,5.5
2021/12/14,19:50,3.9,south,5.0
2021/12/14,20:00,3.9,south,5.5
2021/12/14,20:10,4.0,south,4.9
2021/12/14,20:20,3.8,south,4.0
2021/12/14,20:30,3.9,south,3.2
2021/12/14,20:40,4.2,south,2.8
2021/12/14,20:50,3.8,south-southwest,2.0
2021/12/14,21:00,3.9,southwest,3.1
2021/12/14,21:10,3.9,southwest,4.7
2021/12/14,21:20,4.0,southwest,4.2
2021/12/14,21:30,3.9,southwest,1.1
2021/12/14,21:40,4.0,west-northwest,1.4
2021/12/14,21:50,4.2,west-southwest,2.8
2021/12/14,22:00,4.0,west-southwest,3.0
2021/12/14,22:10,4.1,southwest,3.5
2021/12/14,22:20,3.9,southwest,2.6
2021/12/14,22:30,4.0,west-northwest,0.8
2021/12/14,22:40,4.0,west-northwest,1.7
2021/12/14,22:50,3.9,west-southwest,2.6
2021/12/14,23:00,3.9,west-southwest,2.2
2021/12/14,23:10,3.8,west-southwest,1.7
2021/12/14,23:20,4.1,west-southwest,2.6
2021/12/14,23:30,4.0,west-southwest,3.1
2021/12/14,23:40,4.0,west-southwest,3.3
2021/12/14,23:50,3.8,west-southwest,4.1
